Location: Newark
(25.4297°S, 49.2719°W)
Time: 07:38:09
(UTC+00:00)

Vanguard 1 Rocket - Pass Details

Date: 29 November 2019
Orbit: 650 x 4226 km, 34.3° (Epoch: 07 December)

Event Time Altitude Azimuth Distance (km) Brightness Sun altitude
Rises 18:56:12 0° 253° (WSW) 7,241 12.9 37.3°
Reaches altitude 10° 19:00:32 10° 250° (WSW) 6,564 13.1 36.4°
Maximum altitude 19:25:18 76° 163° (SSE) 4,314 11.3 30.9°
Drops below altitude 10° 19:49:15 10° 77° (ENE) 6,414 11.2 25.6°
Sets 19:53:24 0° 75° (ENE) 7,081 11.4 24.7°
